Retour au catalogue

KUIPER-00046

ActifCommunicationsLEO
NORAD 64506·PAYLOAD·🇺🇸 United States

Lancé Jun 23, 2025 depuis Cape Canaveral Space Force Station

Loading…

Prochains Passages (prochaines 24 heures)

TLE

FraisSource: CelesTrak SupGP

Époque: Sep 14, 2026, 20:10 UTC

1 64506C 25134G   26257.84061343  .00000644  00000+0  84332-4 0  2571
2 64506  51.8967 126.5979 0001081 101.2229 272.3101 14.79926092    11

Suivez KUIPER-00046 en temps réel avec AllMySat

Download on the App Store